Terminal Aerodrome Forecast
Issued by NWS Grand Forks, ND

Home | Current Version | Previous Version | Text Only | Print | Product List | Glossary On
Versions: 1 2 3 4 5 6 7 8 9 10 11 12 13 14 15 16 17 18 19 20 21 22 23 24 25
758
FTUS43 KFGF 080147 AAA
TAFGFK
TAF AMD
KGFK 080147Z 0802/0824 31019G25KT 1 1/2SM -SN BLSN OVC020
     FM080500 32018KT P6SM OVC015
     FM081100 32015KT P6SM OVC035
     FM081600 32014KT P6SM OVC015
     FM082300 31012KT P6SM BKN030=

USA.gov is the U.S. government's official web portal to all federal, state and local government web resources and services.